[[{"header":{"parameterUnit":"m.s-1","parameterCategory":2,"la1":30.2991,"la2":30.254,"lo1":-89.0895,"lo2":-89.0444,"dy":0.0017,"dx":0.0017,"nx":28,"ny":28,"refTime":"2024-04-26T09:00:00:Z","depth":"0","parameterNumber":2,"parameterNumberName":"U-component_of_CURRENTS"},"data":[0,0,0,0,0,0,0,0,0,0,0,0,0,0,0,0,0,0,0,0,0,0,0,0,0,0,0,0,0,0,0,0,0,0,0,0,0,0,0,0,0,0,0,0,0,0,0,0,0,0,0,0,0,0,0,0,0,0,0.2927,0.2928,0,0.2975,0.2975,0.2976,0.2972,0.2972,0.2971,0.2971,0.2975,0.2975,0.2976,0,0,0,0,0,0,0,0,0,0,0,0,0,0.2803,0.2806,0.2927,0.2928,0.2929,0.2975,0.2975,0.2976,0.2972,0.2972,0.2971,0.2971,0.2974,0.2975,0.2976,0,0,0,0,0,0,0,0,0,0,0,0,0,0.2852,0.2806,0.2927,0.2935,0.2936,0.2975,0.2975,0.2976,0.2972,0.2972,0.2971,0.297,0.2974,0.2975,0.2976,0.2995,0,0,0.2978,0.2979,0,0,0,0,0,0,0,0,0.285,0.2857,0.2933,0.2934,0.2936,0.2969,0.2933,0.2981,0.2972,0.2956,0.2971,0.297,0.2971,0.2972,0.2979,0.2995,0.2995,0.2978,0.2979,0.2979,0.2979,0,0,0,0,0,0,0,0.2846,0.2854,0.2943,0.2934,0.2936,0.2926,0.2932,0.2942,0.2964,0.2957,0.2958,0.2968,0.2971,0.2979,0.2979,0.2995,0.2978,0.2979,0.2979,0.298,0.3068,0.307,0,0,0,0,0,0,0.2849,0.2852,0.2942,0.2945,0.2893,0.2929,0.2936,0.2957,0.2965,0.2966,0.2968,0.2967,0.2978,0.2978,0.2979,0.3039,0.2979,0.298,0.298,0.3066,0.3068,0.307,0,0,0,0,0,0,0.2846,0.2857,0.294,0.29,0.2911,0.2932,0.2956,0.2958,0.2972,0.2974,0.2974,0.298,0.2977,0.2978,0.3003,0.3038,0.298,0.2981,0.3064,0.3067,0.3069,0.3135,0,0,0,0,0,0,0.2842,0.2856,0.2873,0.2901,0.2913,0.2973,0.2957,0.296,0.298,0.2979,0.2984,0.2983,0.2977,0.3002,0.3004,0.3038,0.2982,0.3062,0.3065,0.3068,0.3131,0.314,0.3148,0,0,0,0,0,0.2838,0.2866,0.2874,0.2885,0.2936,0.2974,0.2979,0.2989,0.2981,0.2996,0.3001,0.2983,0.3025,0.3004,0.3006,0.3041,0.306,0.3064,0.3068,0.3127,0.3138,0.3148,0,0,0,0,0,0,0.282,0.2869,0.2878,0.292,0.2949,0.2974,0.2991,0.2996,0.3013,0.3011,0.3004,0.3005,0.3042,0.3034,0.301,0.3078,0.3041,0.3046,0.3086,0.3096,0.3105,0.3102,0.2982,0,0,0,0,0,0.2826,0.2862,0.29,0.2934,0.2949,0.2971,0.2987,0.2997,0.3016,0.3022,0.3026,0.3037,0.3061,0.3071,0.3085,0.3119,0.3111,0.3145,0.3153,0.3161,0.3161,0.3177,0.3187,0.3084,0.3084,0.3084,0,0,0.2826,0.2861,0.2878,0.2932,0.2953,0.2986,0.2978,0.3011,0.3038,0.302,0.3053,0.3066,0.3077,0.3119,0.3135,0.3116,0.3191,0.3166,0.3172,0.3168,0.3182,0.3192,0.3201,0.3087,0.3086,0.3086,0,0,0.2844,0.2878,0.2909,0.2939,0.2982,0.3002,0.3014,0.3047,0.306,0.3097,0.3098,0.3132,0.3156,0.318,0.3193,0.3258,0.3236,0.3266,0.3307,0.3323,0.3331,0.3338,0.3359,0.3367,0.327,0.327,0.327,0,0.2837,0.2887,0.2922,0.2959,0.2981,0.3011,0.3039,0.3069,0.3105,0.312,0.3114,0.3175,0.3187,0.3246,0.3277,0.3278,0.328,0.3265,0.3333,0.334,0.3346,0.3364,0.3373,0.3274,0.3274,0.3273,0.3273,0,0.2881,0.2915,0.2936,0.2994,0.3025,0.3057,0.31,0.313,0.3148,0.3173,0.3227,0.3253,0.3283,0.3309,0.3315,0.3377,0.3364,0.3341,0.3303,0.336,0.3377,0.3384,0.3279,0.3278,0.3277,0.3276,0,0,0.2867,0.2947,0.2953,0.2975,0.3042,0.3069,0.3122,0.3172,0.3206,0.3247,0.3285,0.3352,0.336,0.3378,0.3396,0.3427,0.3488,0.3409,0.3408,0.3422,0.3529,0.3551,0.3561,0.3472,0.3473,0.3474,0.3529,0,0.2881,0.2946,0.2984,0.3033,0.3063,0.3104,0.3151,0.3203,0.3245,0.3294,0.3336,0.3386,0.3389,0.3416,0.3446,0.3478,0.3507,0.3475,0.3477,0.3477,0.3484,0.357,0.352,0.3567,0.3536,0.3537,0.3538,0,0.2895,0.2944,0.2988,0.3048,0.3064,0.3093,0.3161,0.321,0.329,0.3328,0.3381,0.3412,0.3484,0.3467,0.3538,0.3516,0.3529,0.3547,0.3548,0.3548,0.3513,0.3503,0.3581,0.3543,0.3549,0.3548,0.3547,0,0.2854,0.2933,0.2963,0.2987,0.307,0.3083,0.3126,0.3207,0.3247,0.3349,0.3385,0.3462,0.3501,0.3534,0.359,0.356,0.366,0.3611,0.3642,0.3643,0.359,0.3585,0.3623,0.3649,0.3649,0.3649,0.3649,0,0.284,0.2856,0.2943,0.2957,0.2983,0.306,0.3096,0.3154,0.3245,0.3296,0.339,0.3445,0.3518,0.3583,0.361,0.3672,0.3672,0.3672,0.3668,0.3616,0.3612,0.3566,0.3534,0.3651,0.3651,0.365,0.365,0,0.276,0.2823,0.2849,0.2935,0.2951,0.2966,0.3041,0.3075,0.3192,0.3258,0.3292,0.3433,0.3544,0.3624,0.3703,0.3702,0.368,0.3772,0.3719,0.3709,0.3679,0.3652,0.3494,0.3378,0.3799,0.38,0.3801,0,0.2721,0.2735,0.28,0.2803,0.2823,0.2869,0.2887,0.3011,0.3058,0.3246,0.3262,0.3422,0.353,0.3691,0.376,0.3842,0.3717,0.3804,0.3737,0.3701,0.3666,0.3472,0.3369,0.3695,0.3695,0.3695,0.3695,0,0.2639,0.2657,0.2679,0.27,0.2705,0.273,0.2779,0.2812,0.2974,0.3073,0.3221,0.3341,0.3552,0.3659,0.3801,0.3827,0.366,0.3804,0.377,0.3609,0.3391,0.327,0.364,0.3694,0.3694,0.3694,0.3695,0.3695,0.2554,0.2548,0.2585,0.2587,0.2589,0.2593,0.2588,0.2684,0.2775,0.2922,0.3102,0.3275,0.3532,0.3752,0.3749,0.3775,0.366,0.371,0.3687,0.3497,0.3359,0.3747,0.3794,0.3795,0.3795,0.3796,0.3796,0,0.2481,0.2486,0.2479,0.2479,0.244,0.2486,0.2512,0.2519,0.2598,0.2812,0.2969,0.3271,0.344,0.3604,0.3778,0.3707,0.3463,0.3617,0.3338,0.3244,0.3625,0.36,0.3603,0.3603,0.3603,0.3603,0.3603,0.3603,0.2441,0.2421,0.2427,0.2348,0.2334,0.2271,0.2268,0.23,0.2431,0.263,0.2826,0.3017,0.341,0.3716,0.3754,0.3658,0.3369,0.3245,0.3155,0.3489,0.3494,0.35,0.347,0.3446,0.3445,0.2645,0.264,0.2636]},{"header":{"parameterUnit":"m.s-1","parameterCategory":2,"la1":30.2991,"la2":30.254,"lo1":-89.0895,"lo2":-89.0444,"dy":0.0017,"dx":0.0017,"nx":28,"ny":28,"refTime":"2024-04-26T09:00:00:Z","depth":"0","parameterNumber":3,"parameterNumberName":"V-component_of_CURRENTS"},"data":[0,0,0,0,0,0,0,0,0,0,0,0,0,0,0,0,0,0,0,0,0,0,0,0,0,0,0,0,0,0,0,0,0,0,0,0,0,0,0,0,0,0,0,0,0,0,0,0,0,0,0,0,0,0,0,0,0,0,0.0094,0.0093,0,0.0008,0.0007,0.0006,-0.0055,-0.0056,-0.0056,-0.0056,-0.0215,-0.0219,-0.0223,0,0,0,0,0,0,0,0,0,0,0,0,0,0.0133,0.0133,0.0094,0.0093,0.0092,0.0008,0.0007,0.0006,-0.0055,-0.0056,-0.0056,-0.0057,-0.0214,-0.0219,-0.0223,0,0,0,0,0,0,0,0,0,0,0,0,0,0.0087,0.0133,0.0094,0.0053,0.0048,0.0009,0.0007,0.0005,-0.0055,-0.0056,-0.0056,-0.0057,-0.0212,-0.0218,-0.0224,-0.0251,0,0,-0.0242,-0.0245,0,0,0,0,0,0,0,0,0.009,0.0085,0.006,0.0056,0.0051,-0.0012,-0.0037,-0.0083,-0.0055,-0.0018,-0.0056,-0.0057,-0.0152,-0.0163,-0.018,-0.0258,-0.0265,-0.0242,-0.0246,-0.0249,-0.025,0,0,0,0,0,0,0,0.0093,0.0088,0.0058,0.0059,0.0053,0.0015,0.0008,-0.0046,-0.0084,-0.0021,-0.0025,-0.0032,-0.0156,-0.0174,-0.0184,-0.0267,-0.0242,-0.0248,-0.0251,-0.0254,-0.0371,-0.0371,0,0,0,0,0,0,0.0112,0.0092,0.0061,0.0056,0.0072,0.0015,0.0007,0.0007,-0.0082,-0.0095,-0.0031,-0.0034,-0.0164,-0.0177,-0.019,-0.0217,-0.0249,-0.0254,-0.0257,-0.0372,-0.0371,-0.0371,0,0,0,0,0,0,0.0113,0.011,0.0064,0.0073,0.0064,0.0015,0.0015,0.0006,-0.001,-0.0089,-0.0103,-0.0037,-0.0165,-0.0182,-0.023,-0.0224,-0.0257,-0.0262,-0.0372,-0.0372,-0.0371,-0.0277,0,0,0,0,0,0,0.0115,0.0111,0.0117,0.0074,0.0065,0.0051,0.0016,0.0005,-0.0013,-0.0017,-0.0099,-0.0114,-0.0166,-0.022,-0.0235,-0.0233,-0.0267,-0.0373,-0.0372,-0.0371,-0.028,-0.0273,-0.0267,0,0,0,0,0,0.0117,0.0133,0.0118,0.0114,0.0075,0.0051,0.0043,0.0004,-0.0012,-0.0014,-0.0067,-0.0111,-0.0226,-0.0225,-0.0243,-0.0241,-0.0373,-0.0372,-0.0371,-0.0283,-0.0274,-0.0267,0,0,0,0,0,0,0.0152,0.0127,0.011,0.0117,0.009,0.0042,0.0039,0.0012,-0.003,-0.0034,-0.0109,-0.0128,-0.0171,-0.0216,-0.0212,-0.0272,-0.0306,-0.0309,-0.0233,-0.0226,-0.0219,-0.0191,-0.0272,0,0,0,0,0,0.0164,0.017,0.0134,0.014,0.0131,0.0086,0.0072,0.0048,0.0006,-0.0013,-0.0069,-0.0128,-0.0182,-0.0209,-0.0265,-0.0296,-0.0334,-0.0306,-0.0299,-0.0293,-0.0282,-0.0332,-0.0328,-0.0368,-0.0368,-0.0368,0,0,0.0178,0.0166,0.0168,0.0147,0.0124,0.0121,0.0077,0.0066,0.0058,-0.0024,-0.0051,-0.0111,-0.0186,-0.0222,-0.0245,-0.0258,-0.03,-0.0292,-0.0286,-0.0278,-0.033,-0.0326,-0.0323,-0.0367,-0.0367,-0.0367,0,0,0.0215,0.0201,0.0218,0.0203,0.018,0.0152,0.0154,0.0111,0.0089,0.0058,-0.0006,-0.0051,-0.0132,-0.0179,-0.0215,-0.0203,-0.0266,-0.0226,-0.0166,-0.0214,-0.0211,-0.0209,-0.0239,-0.0241,-0.0217,-0.0216,-0.0216,0,0.0232,0.0249,0.0218,0.023,0.0225,0.0173,0.0187,0.0157,0.0103,0.0091,0.0063,-0.0045,-0.0109,-0.0153,-0.0149,-0.0187,-0.0221,-0.0189,-0.0204,-0.0202,-0.0202,-0.0234,-0.0237,-0.0212,-0.0212,-0.0213,-0.0213,0,0.0279,0.029,0.0301,0.0299,0.0288,0.0294,0.0253,0.0238,0.0205,0.0171,0.0123,0.0039,-0.0019,-0.0051,-0.0099,-0.0126,-0.0153,-0.0192,-0.0219,-0.0192,-0.0228,-0.0232,-0.0205,-0.0207,-0.0208,-0.0209,0,0,0.0327,0.0334,0.0338,0.035,0.0328,0.0325,0.032,0.03,0.0306,0.0241,0.0236,0.0141,0.0099,0.0056,-0.0014,-0.0056,-0.0082,-0.0112,-0.0117,-0.0133,-0.0177,-0.0182,-0.0188,-0.0127,-0.0127,-0.0128,-0.02,0,0.0374,0.042,0.0403,0.0436,0.0455,0.0413,0.0416,0.0389,0.0357,0.0338,0.0252,0.0216,0.0138,0.0115,0.0059,-0.0051,-0.0091,-0.0058,-0.0211,-0.0214,-0.0215,-0.0193,-0.0164,-0.0225,-0.0205,-0.0205,-0.0206,0,0.0426,0.0453,0.0501,0.0516,0.052,0.0524,0.0527,0.0525,0.0485,0.046,0.0409,0.0338,0.0265,0.0195,0.004,0.0064,-0.0042,-0.0128,-0.0133,-0.0173,-0.0228,-0.0254,-0.0235,-0.0437,-0.0213,-0.0213,-0.0212,0,0.0486,0.0517,0.0561,0.0566,0.0575,0.0584,0.0586,0.0565,0.0584,0.0542,0.0551,0.0438,0.0395,0.0247,0.0077,0.0055,-0.0091,-0.0148,-0.0251,-0.0252,-0.0274,-0.0277,-0.046,-0.0253,-0.0252,-0.0252,-0.0252,0,0.0543,0.0579,0.0593,0.0619,0.0674,0.0652,0.0702,0.069,0.0691,0.0735,0.0624,0.0632,0.0405,0.0294,0.012,-0.0062,-0.0058,-0.023,-0.027,-0.024,-0.0238,-0.0454,-0.0569,-0.0255,-0.0254,-0.0254,-0.0253,0,0.0598,0.061,0.0665,0.0691,0.0706,0.0746,0.079,0.0825,0.082,0.0876,0.0872,0.0775,0.0638,0.0415,0.018,0.0011,-0.0293,-0.0244,-0.0181,-0.0212,-0.0503,-0.0613,-0.0834,-0.0954,-0.0373,-0.0373,-0.0374,0,0.0629,0.0666,0.0726,0.0765,0.0778,0.0835,0.0878,0.0891,0.0941,0.0979,0.1014,0.0908,0.0868,0.0527,0.02,-0.0096,-0.0305,-0.0276,-0.0322,-0.0506,-0.0659,-0.0743,-0.0835,-0.0315,-0.0314,-0.0314,-0.0314,0,0.0693,0.0712,0.0759,0.0847,0.0899,0.0973,0.1038,0.1106,0.1145,0.121,0.1281,0.1262,0.0942,0.0661,0.024,0.0015,-0.0423,-0.0284,-0.0502,-0.0645,-0.0722,-0.0859,-0.0275,-0.0314,-0.0314,-0.0314,-0.0314,-0.0314,0.0739,0.0788,0.0853,0.0934,0.1001,0.1107,0.1198,0.1289,0.142,0.156,0.1507,0.1549,0.1103,0.0537,0.0188,-0.0417,-0.0449,-0.0592,-0.0712,-0.0782,-0.0895,-0.0295,-0.0365,-0.0365,-0.0365,-0.0366,-0.0366,0,0.0807,0.0862,0.0936,0.1041,0.1121,0.115,0.1302,0.1417,0.1609,0.1752,0.1839,0.1673,0.1124,0.0539,-0.0275,-0.0737,-0.0937,-0.0999,-0.1128,-0.1208,-0.0691,-0.0686,-0.0795,-0.0795,-0.0794,-0.0794,-0.0794,-0.0794,0.085,0.094,0.0981,0.1131,0.12,0.1345,0.1452,0.1644,0.1797,0.2019,0.209,0.2082,0.1654,0.0147,-0.0907,-0.1176,-0.1514,-0.1573,-0.178,-0.1435,-0.1407,-0.138,-0.1404,-0.1661,-0.1662,-0.2235,-0.2241,-0.2245]}],[{"header":{"parameterUnit":"m.s-1","parameterCategory":2,"la1":30.2991,"la2":30.254,"lo1":-89.0895,"lo2":-89.0444,"dy":0.0017,"dx":0.0017,"nx":28,"ny":28,"refTime":"2024-04-26T09:00:00:Z","depth":"2","parameterNumber":2,"parameterNumberName":"U-component_of_CURRENTS"},"data":[0,0,0,0,0,0,0,0,0,0,0,0,0,0,0,0,0,0,0,0,0,0,0,0,0,0,0,0,0,0,0,0,0,0,0,0,0,0,0,0,0,0,0,0,0,0,0,0,0,0,0,0,0,0,0,0,0,0,0.2837,0.2838,0,0.2877,0.2877,0.2877,0.2878,0.2878,0.2877,0.2877,0.2898,0.2899,0.2899,0,0,0,0,0,0,0,0,0,0,0,0,0,0.2721,0.2723,0.2837,0.2838,0.2839,0.2877,0.2877,0.2877,0.2878,0.2878,0.2877,0.2877,0.2897,0.2898,0.2899,0,0,0,0,0,0,0,0,0,0,0,0,0,0.2765,0.2724,0.2837,0.2845,0.2846,0.2877,0.2877,0.2878,0.2878,0.2878,0.2877,0.2877,0.2897,0.2898,0.29,0.2916,0,0,0.2903,0.2904,0,0,0,0,0,0,0,0,0.2762,0.2769,0.2843,0.2845,0.2846,0.2874,0.2844,0.289,0.2878,0.2864,0.2877,0.2876,0.289,0.2892,0.2897,0.2917,0.2918,0.2903,0.2904,0.2905,0.2905,0,0,0,0,0,0,0,0.2759,0.2767,0.2851,0.2844,0.2846,0.2833,0.2839,0.2852,0.2877,0.2865,0.2866,0.2874,0.289,0.2896,0.2898,0.2918,0.2903,0.2905,0.2905,0.2906,0.2999,0.3001,0,0,0,0,0,0,0.2762,0.2765,0.2849,0.2852,0.2805,0.2836,0.2842,0.2864,0.2877,0.2879,0.2874,0.2874,0.2894,0.2896,0.2898,0.2967,0.2905,0.2906,0.2907,0.2997,0.2999,0.3001,0,0,0,0,0,0,0.276,0.277,0.2848,0.281,0.2819,0.2839,0.2862,0.2865,0.2882,0.2885,0.2886,0.289,0.2894,0.2897,0.2928,0.2966,0.2906,0.2908,0.2995,0.2998,0.3,0.3073,0,0,0,0,0,0,0.2756,0.2769,0.2791,0.2811,0.2822,0.2876,0.2863,0.2866,0.2888,0.2888,0.2899,0.29,0.2894,0.2926,0.2929,0.2966,0.2909,0.2993,0.2996,0.2999,0.3069,0.3078,0.3086,0,0,0,0,0,0.2752,0.2775,0.2792,0.2802,0.2849,0.2878,0.2882,0.2891,0.289,0.2904,0.2915,0.29,0.2949,0.2929,0.2932,0.297,0.2991,0.2995,0.2999,0.3065,0.3076,0.3086,0,0,0,0,0,0,0.2735,0.2778,0.2796,0.2833,0.2862,0.2879,0.2893,0.2902,0.2922,0.2925,0.2921,0.2924,0.2965,0.2959,0.2937,0.3007,0.2969,0.2973,0.3018,0.3028,0.3037,0.3031,0.291,0,0,0,0,0,0.2745,0.2776,0.2812,0.2845,0.2859,0.2882,0.2896,0.2908,0.2926,0.2934,0.2943,0.2958,0.2983,0.2997,0.3011,0.305,0.3041,0.3077,0.3086,0.3094,0.3092,0.3107,0.3117,0.3014,0.3014,0.3014,0,0,0.2747,0.2777,0.2795,0.2845,0.2865,0.2895,0.2889,0.2919,0.2947,0.2934,0.2973,0.2987,0.3,0.3044,0.3063,0.3045,0.3124,0.3099,0.3105,0.3099,0.3112,0.3122,0.3131,0.3017,0.3016,0.3016,0,0,0.276,0.2796,0.2824,0.2852,0.2894,0.2911,0.2925,0.2955,0.2973,0.3014,0.3018,0.3053,0.3084,0.3105,0.3119,0.3184,0.3166,0.3196,0.324,0.3255,0.3263,0.327,0.3292,0.33,0.3203,0.3203,0.3203,0,0.276,0.2804,0.2835,0.2868,0.2892,0.2922,0.2951,0.2979,0.3018,0.3036,0.3034,0.3099,0.3112,0.3172,0.3202,0.3203,0.321,0.3199,0.3266,0.3272,0.3278,0.3298,0.3306,0.3207,0.3207,0.3206,0.3206,0,0.2794,0.2829,0.2846,0.2902,0.2934,0.2963,0.3007,0.3039,0.3063,0.3088,0.3148,0.3176,0.3209,0.3235,0.3242,0.3304,0.3296,0.3272,0.3236,0.3293,0.331,0.3318,0.3213,0.3211,0.321,0.3209,0,0,0.2779,0.2853,0.2855,0.2886,0.2952,0.2977,0.3032,0.3082,0.3118,0.3163,0.3206,0.3272,0.3285,0.3302,0.3325,0.3356,0.3418,0.3343,0.3342,0.3359,0.3464,0.3472,0.348,0.3408,0.3409,0.341,0.3467,0,0.279,0.2848,0.2883,0.2936,0.2972,0.3014,0.3062,0.3116,0.3161,0.321,0.3254,0.3307,0.3314,0.3347,0.3378,0.3407,0.3437,0.3405,0.341,0.341,0.3406,0.3489,0.3227,0.3257,0.3473,0.3475,0.3475,0,0.2797,0.2845,0.2894,0.2962,0.2979,0.301,0.3084,0.3133,0.3209,0.3249,0.3306,0.334,0.3412,0.3398,0.347,0.3452,0.3465,0.3481,0.3483,0.3465,0.3431,0.3232,0.3261,0.3487,0.3486,0.3485,0.3484,0,0.2762,0.2838,0.2876,0.2901,0.299,0.301,0.3052,0.3134,0.3174,0.3275,0.3312,0.3392,0.3435,0.3468,0.3522,0.3496,0.359,0.3545,0.3563,0.3563,0.3327,0.3306,0.3581,0.3581,0.3581,0.3581,0.3581,0,0.2745,0.2769,0.286,0.2876,0.2913,0.2995,0.3037,0.3091,0.3181,0.3229,0.3322,0.338,0.3455,0.3518,0.3543,0.3597,0.3604,0.359,0.3586,0.335,0.3331,0.3507,0.3498,0.3583,0.3583,0.3582,0.3582,0,0.2674,0.2737,0.2777,0.2869,0.2887,0.2911,0.2987,0.302,0.3135,0.3199,0.3234,0.3372,0.3479,0.3557,0.3633,0.3626,0.3674,0.3683,0.3421,0.3386,0.3624,0.3618,0.3695,0.3696,0.3697,0.3697,0.3698,0,0.2635,0.2662,0.2735,0.2744,0.2768,0.2823,0.2842,0.2962,0.3007,0.3189,0.3204,0.3362,0.3457,0.3603,0.3639,0.3703,0.3726,0.3475,0.338,0.3652,0.364,0.3632,0.3625,0.3092,0.3087,0.3084,0.3081,0,0.2569,0.2594,0.2617,0.2646,0.266,0.2688,0.274,0.2771,0.2926,0.3017,0.3155,0.3263,0.3436,0.3417,0.3531,0.3516,0.3449,0.3407,0.374,0.3129,0.3095,0.308,0.309,0.3048,0.3051,0.3054,0.3056,0.3057,0.2493,0.2493,0.253,0.254,0.255,0.2557,0.2554,0.2638,0.2719,0.2832,0.3006,0.309,0.3185,0.3251,0.319,0.3145,0.3374,0.3204,0.3209,0.322,0.3166,0.3137,0.3088,0.3091,0.3094,0.3097,0.3099,0,0.2427,0.2435,0.2431,0.2438,0.2402,0.2455,0.2481,0.2481,0.2541,0.267,0.2788,0.2661,0.271,0.2785,0.2698,0.2745,0.2643,0.2609,0.2438,0.2477,0.251,0.2411,0.2138,0.2134,0.213,0.2127,0,0,0.2395,0.237,0.2372,0.2302,0.23,0.2248,0.2248,0.226,0.2329,0.2331,0.2357,0.2598,0.2747,0.2403,0.2391,0.2245,0.2321,0.2156,0.2944,0.2784,0.2812,0.2895,0.2796,0,0,0,0,0]},{"header":{"parameterUnit":"m.s-1","parameterCategory":2,"la1":30.2991,"la2":30.254,"lo1":-89.0895,"lo2":-89.0444,"dy":0.0017,"dx":0.0017,"nx":28,"ny":28,"refTime":"2024-04-26T09:00:00:Z","depth":"2","parameterNumber":3,"parameterNumberName":"V-component_of_CURRENTS"},"data":[0,0,0,0,0,0,0,0,0,0,0,0,0,0,0,0,0,0,0,0,0,0,0,0,0,0,0,0,0,0,0,0,0,0,0,0,0,0,0,0,0,0,0,0,0,0,0,0,0,0,0,0,0,0,0,0,0,0,0.0023,0.0022,0,-0.006,-0.0061,-0.0062,-0.0119,-0.0119,-0.0119,-0.012,-0.027,-0.0273,-0.0277,0,0,0,0,0,0,0,0,0,0,0,0,0,0.0058,0.0058,0.0023,0.0022,0.0021,-0.0059,-0.0061,-0.0062,-0.0119,-0.0119,-0.0119,-0.012,-0.0268,-0.0273,-0.0277,0,0,0,0,0,0,0,0,0,0,0,0,0,0.0015,0.0058,0.0023,-0.0015,-0.002,-0.0059,-0.0061,-0.0062,-0.0119,-0.0119,-0.012,-0.012,-0.0267,-0.0272,-0.0278,-0.0304,0,0,-0.0295,-0.0297,0,0,0,0,0,0,0,0,0.0018,0.0014,-0.0009,-0.0013,-0.0018,-0.0078,-0.0103,-0.0146,-0.0119,-0.0083,-0.012,-0.012,-0.0211,-0.0221,-0.0237,-0.0311,-0.0317,-0.0296,-0.0299,-0.0301,-0.0303,0,0,0,0,0,0,0,0.0021,0.0016,-0.0011,-0.001,-0.0015,-0.0054,-0.006,-0.0112,-0.0146,-0.0086,-0.009,-0.0096,-0.0214,-0.0231,-0.0241,-0.032,-0.0295,-0.03,-0.0304,-0.0306,-0.0418,-0.0417,0,0,0,0,0,0,0.0038,0.002,-0.0008,-0.0013,0.0001,-0.0054,-0.0061,-0.0059,-0.0144,-0.0156,-0.0096,-0.0099,-0.0221,-0.0234,-0.0246,-0.027,-0.0301,-0.0306,-0.031,-0.0418,-0.0418,-0.0417,0,0,0,0,0,0,0.004,0.0037,-0.0005,0.0002,-0.0006,-0.0053,-0.0052,-0.0061,-0.0075,-0.015,-0.0164,-0.0101,-0.0222,-0.0238,-0.0283,-0.0277,-0.0309,-0.0314,-0.0419,-0.0418,-0.0417,-0.0325,0,0,0,0,0,0,0.0041,0.0038,0.0045,0.0004,-0.0006,-0.0019,-0.0051,-0.0062,-0.0078,-0.0083,-0.0159,-0.0174,-0.0224,-0.0274,-0.0289,-0.0285,-0.0318,-0.0419,-0.0418,-0.0418,-0.0329,-0.0322,-0.0316,0,0,0,0,0,0.0043,0.0058,0.0046,0.0043,0.0006,-0.0018,-0.0026,-0.0063,-0.0078,-0.0079,-0.0128,-0.0171,-0.028,-0.0278,-0.0295,-0.0293,-0.0419,-0.0418,-0.0418,-0.0332,-0.0323,-0.0316,0,0,0,0,0,0,0.0077,0.0053,0.0039,0.0046,0.002,-0.0027,-0.003,-0.0055,-0.0094,-0.0098,-0.0169,-0.0187,-0.0227,-0.027,-0.0266,-0.0323,-0.0356,-0.0358,-0.0285,-0.0277,-0.0271,-0.0243,-0.0323,0,0,0,0,0,0.0089,0.0095,0.0061,0.0067,0.0059,0.0017,0.0003,-0.002,-0.006,-0.0077,-0.013,-0.0186,-0.0237,-0.0263,-0.0317,-0.0345,-0.0382,-0.0354,-0.0347,-0.0341,-0.033,-0.0379,-0.0375,-0.0414,-0.0414,-0.0414,0,0,0.0103,0.0092,0.0094,0.0075,0.0053,0.005,0.0007,-0.0004,-0.0009,-0.0089,-0.0112,-0.0169,-0.0241,-0.0275,-0.0296,-0.0309,-0.0349,-0.034,-0.0334,-0.0326,-0.0377,-0.0373,-0.037,-0.0414,-0.0414,-0.0414,0,0,0.0139,0.0127,0.0145,0.013,0.0107,0.008,0.0083,0.0042,0.0021,-0.0007,-0.0067,-0.0111,-0.0187,-0.0233,-0.0267,-0.0255,-0.0316,-0.0276,-0.0217,-0.0264,-0.0261,-0.0259,-0.0293,-0.0294,-0.0267,-0.0267,-0.0267,0,0.0157,0.0175,0.0145,0.0156,0.0152,0.0101,0.0117,0.0088,0.0037,0.0025,-0.0001,-0.0103,-0.0164,-0.0206,-0.0202,-0.0239,-0.0273,-0.024,-0.0254,-0.0253,-0.0252,-0.0288,-0.0291,-0.0263,-0.0263,-0.0264,-0.0264,0,0.0203,0.0216,0.0226,0.0226,0.0216,0.0222,0.0183,0.0169,0.0138,0.0105,0.006,-0.002,-0.0076,-0.0107,-0.0153,-0.0179,-0.0206,-0.0243,-0.0269,-0.0242,-0.0282,-0.0286,-0.0256,-0.0258,-0.0259,-0.026,0,0,0.025,0.0258,0.0262,0.0276,0.0256,0.0254,0.0251,0.0232,0.0238,0.0176,0.0172,0.0081,0.004,-0.0001,-0.0068,-0.0109,-0.0136,-0.0164,-0.0169,-0.0188,-0.0232,-0.0238,-0.0245,-0.0178,-0.0178,-0.0179,-0.0258,0,0.0296,0.0343,0.0327,0.0362,0.0385,0.0343,0.0347,0.0322,0.029,0.0271,0.0188,0.0153,0.0079,0.0057,0.0004,-0.0105,-0.0146,-0.0111,-0.0264,-0.0268,-0.0269,-0.0249,-0.023,-0.0298,-0.0263,-0.0264,-0.0265,0,0.0347,0.0376,0.0426,0.0445,0.0449,0.0456,0.046,0.0458,0.0416,0.0392,0.0344,0.0274,0.0202,0.0136,-0.0017,0.0008,-0.0097,-0.0182,-0.0188,-0.0228,-0.0283,-0.0323,-0.0308,-0.0273,-0.0272,-0.0272,-0.0271,0,0.0406,0.044,0.0487,0.0493,0.0505,0.0516,0.0519,0.0499,0.0515,0.0474,0.0479,0.0371,0.0329,0.0185,0.0016,-0.0004,-0.0152,-0.0206,-0.0309,-0.0311,-0.0341,-0.0344,-0.0309,-0.0309,-0.0309,-0.0308,-0.0308,0,0.0463,0.05,0.0519,0.0545,0.0602,0.0585,0.0634,0.0621,0.0621,0.0659,0.0552,0.0555,0.0338,0.0226,0.0056,-0.0126,-0.0122,-0.029,-0.033,-0.0307,-0.0306,-0.0326,-0.0327,-0.0311,-0.0311,-0.031,-0.031,0,0.0517,0.0531,0.059,0.0619,0.0634,0.0676,0.0718,0.0751,0.0746,0.0793,0.0789,0.0689,0.055,0.0335,0.0103,-0.0059,-0.0243,-0.0312,-0.026,-0.0293,-0.0385,-0.038,-0.044,-0.0441,-0.0442,-0.0442,-0.0443,0,0.0547,0.0587,0.0648,0.0689,0.0703,0.0762,0.0803,0.0815,0.0861,0.0887,0.0916,0.0806,0.0754,0.0418,0.0105,-0.0185,-0.0229,-0.036,-0.04,-0.0363,-0.0397,-0.0392,-0.0386,-0.0406,-0.0406,-0.0406,-0.0406,0,0.0609,0.0631,0.0676,0.0765,0.0818,0.089,0.0952,0.1012,0.1045,0.1092,0.1141,0.1111,0.0801,0.0511,0.0108,-0.0097,-0.0314,-0.0371,-0.0352,-0.0366,-0.0335,-0.0367,-0.0362,-0.0407,-0.0407,-0.0407,-0.0407,-0.0407,0.0651,0.0699,0.0761,0.0841,0.0912,0.1011,0.1091,0.1157,0.1262,0.1337,0.1306,0.1265,0.0933,0.042,0.0069,-0.0317,-0.0308,-0.0449,-0.0447,-0.0445,-0.0418,-0.0389,-0.0465,-0.0465,-0.0466,-0.0466,-0.0466,0,0.0706,0.0761,0.0833,0.0934,0.1012,0.105,0.1184,0.1259,0.1393,0.1444,0.1482,0.1173,0.0867,0.0486,-0.0078,-0.0406,-0.0446,-0.0514,-0.0488,-0.0484,-0.0482,-0.0456,-0.0514,-0.0515,-0.0516,-0.0517,0,0,0.0743,0.082,0.0856,0.0997,0.1074,0.1203,0.1298,0.1404,0.1474,0.1502,0.1476,0.1431,0.0991,0.058,0.0127,-0.019,-0.0266,-0.0263,-0.0191,-0.0104,-0.0097,-0.0412,-0.0364,0,0,0,0,0]}],[{"header":{"parameterUnit":"m.s-1","parameterCategory":2,"la1":30.2991,"la2":30.254,"lo1":-89.0895,"lo2":-89.0444,"dy":0.0017,"dx":0.0017,"nx":28,"ny":28,"refTime":"2024-04-26T09:00:00:Z","depth":"4","parameterNumber":2,"parameterNumberName":"U-component_of_CURRENTS"},"data":[0,0,0,0,0,0,0,0,0,0,0,0,0,0,0,0,0,0,0,0,0,0,0,0,0,0,0,0,0,0,0,0,0,0,0,0,0,0,0,0,0,0,0,0,0,0,0,0,0,0,0,0,0,0,0,0,0,0,0.1674,0.1676,0,0.1761,0.1762,0.1763,0.1824,0.1824,0.1825,0.1826,0.1913,0.1915,0.1917,0,0,0,0,0,0,0,0,0,0,0,0,0,0.1592,0.1592,0.1674,0.1676,0.1677,0.1761,0.1762,0.1763,0.1824,0.1824,0.1825,0.1826,0.1913,0.1915,0.1917,0,0,0,0,0,0,0,0,0,0,0,0,0,0.1646,0.1593,0.1674,0.1718,0.1723,0.1761,0.1762,0.1763,0.1823,0.1824,0.1825,0.1826,0.1912,0.1914,0.1917,0.1914,0,0,0.1925,0.1926,0,0,0,0,0,0,0,0,0.1643,0.1649,0.1711,0.1715,0.1721,0.1784,0.1765,0.1814,0.1823,0.1784,0.1826,0.1827,0.187,0.1876,0.1888,0.1919,0.1922,0.1925,0.1927,0.1928,0.1929,0,0,0,0,0,0,0,0.1639,0.1646,0.1707,0.1712,0.1718,0.1744,0.1753,0.1775,0.1819,0.1787,0.1792,0.1804,0.1873,0.1886,0.1891,0.1924,0.1925,0.1928,0.1929,0.193,0.2062,0.2064,0,0,0,0,0,0,0.1629,0.1642,0.1704,0.171,0.1685,0.1745,0.1754,0.1761,0.1819,0.183,0.1803,0.1807,0.1881,0.1888,0.1894,0.1994,0.1928,0.193,0.1932,0.206,0.2063,0.2065,0,0,0,0,0,0,0.1627,0.1633,0.1701,0.1679,0.169,0.1745,0.1753,0.1763,0.1815,0.1832,0.1842,0.185,0.1882,0.1891,0.1951,0.1994,0.1932,0.1934,0.2058,0.2061,0.2064,0.213,0,0,0,0,0,0,0.1624,0.1632,0.1653,0.1678,0.1691,0.1747,0.1753,0.1764,0.1819,0.1825,0.1874,0.1881,0.1883,0.1947,0.1954,0.1997,0.1936,0.2056,0.2059,0.2063,0.2125,0.2135,0.2143,0,0,0,0,0,0.162,0.1636,0.1653,0.1662,0.1711,0.1748,0.1758,0.1798,0.1821,0.1848,0.1887,0.1882,0.1975,0.1951,0.1958,0.2003,0.2054,0.2058,0.2063,0.2121,0.2133,0.2143,0,0,0,0,0,0,0.1608,0.1645,0.1663,0.169,0.1729,0.176,0.1796,0.1821,0.1873,0.1893,0.1906,0.1916,0.1983,0.1985,0.1958,0.2052,0.2014,0.202,0.2056,0.2067,0.2076,0.2073,0.1938,0,0,0,0,0,0.1614,0.1639,0.1676,0.1701,0.1728,0.177,0.1799,0.1828,0.1868,0.1895,0.1927,0.1965,0.2,0.2028,0.2054,0.2107,0.2116,0.2141,0.2149,0.2157,0.216,0.222,0.2235,0.2079,0.2079,0.2079,0,0,0.1615,0.164,0.1655,0.1702,0.174,0.178,0.1791,0.1848,0.1887,0.1894,0.197,0.1998,0.202,0.2079,0.211,0.2092,0.2207,0.2162,0.2168,0.2168,0.2226,0.2242,0.2255,0.2082,0.2082,0.2081,0,0,0.1622,0.1657,0.1685,0.1723,0.1787,0.1813,0.1838,0.1895,0.1935,0.2,0.2017,0.2073,0.2129,0.2153,0.217,0.2243,0.2249,0.2261,0.2309,0.2368,0.2381,0.2393,0.2426,0.244,0.2269,0.2269,0.2269,0,0.1629,0.1662,0.17,0.174,0.1777,0.1832,0.1873,0.1918,0.1987,0.2024,0.2036,0.2139,0.2159,0.2228,0.2258,0.2263,0.2294,0.2266,0.238,0.2391,0.2402,0.2433,0.2448,0.2273,0.2272,0.2272,0.2272,0,0.165,0.1694,0.1718,0.1783,0.1827,0.1875,0.1935,0.1992,0.2048,0.2089,0.2184,0.2221,0.2284,0.2302,0.2305,0.2397,0.2393,0.2381,0.2351,0.2422,0.245,0.2464,0.2278,0.2277,0.2276,0.2275,0,0,0.1613,0.1715,0.1725,0.1771,0.1858,0.1893,0.1967,0.2044,0.2114,0.2182,0.2267,0.233,0.237,0.2392,0.2415,0.2465,0.2567,0.2468,0.2469,0.2496,0.2698,0.2534,0.2533,0.2589,0.2592,0.2594,0.2686,0,0.1624,0.1697,0.1745,0.1825,0.1872,0.1946,0.201,0.2089,0.2171,0.2268,0.2324,0.2419,0.2401,0.2462,0.2507,0.256,0.2608,0.2542,0.2628,0.263,0.2472,0.2545,0.2603,0.2697,0.27,0.2702,0.2704,0,0.1623,0.1674,0.1749,0.186,0.189,0.1949,0.2072,0.2145,0.2276,0.2347,0.2443,0.2502,0.2598,0.2577,0.2688,0.2656,0.2686,0.2709,0.2713,0.2543,0.2491,0.2611,0.2729,0.2727,0.2725,0.2723,0.2722,0,0.1568,0.1676,0.1737,0.1775,0.1903,0.1962,0.2043,0.2173,0.2253,0.2423,0.25,0.2611,0.2692,0.2749,0.2794,0.277,0.2903,0.2869,0.2741,0.2729,0.2819,0.2805,0.2946,0.2946,0.2946,0.2946,0.2945,0,0.1545,0.1601,0.1728,0.1764,0.1854,0.1956,0.2078,0.2176,0.2329,0.2423,0.2551,0.2627,0.2748,0.2825,0.2845,0.2831,0.2946,0.2758,0.2747,0.2844,0.2832,0.2829,0.2814,0.2949,0.2948,0.2948,0.2947,0,0.1479,0.1562,0.1644,0.1783,0.1834,0.1907,0.2087,0.2167,0.2329,0.2458,0.2519,0.2679,0.2778,0.2859,0.2964,0.288,0.2897,0.2863,0.2968,0.2961,0.267,0.2658,0.2724,0.2719,0.2714,0.2711,0.2708,0,0.145,0.1485,0.1637,0.1692,0.1767,0.1893,0.1971,0.2149,0.2229,0.2454,0.2488,0.2657,0.2739,0.2747,0.2847,0.2879,0.2843,0.2827,0.273,0.2667,0.2651,0.2646,0.2639,0.2701,0.27,0.2699,0.2698,0,0.1391,0.1457,0.1524,0.1634,0.1726,0.1817,0.1945,0.1985,0.2178,0.2335,0.2411,0.2475,0.2578,0.2644,0.2697,0.2707,0.2823,0.2783,0.279,0.2699,0.2641,0.2628,0.2627,0.2684,0.2686,0.2687,0.2688,0,0.1346,0.1375,0.1472,0.1556,0.1663,0.1709,0.1793,0.1879,0.1974,0.22,0.2219,0.2393,0.2547,0.2556,0.2601,0.2608,0.256,0.2463,0.2486,0.2503,0.2388,0.2279,0.2211,0,0,0,0,0,0.1291,0.1313,0.1387,0.1467,0.1565,0.1626,0.1756,0.1837,0.2004,0.2,0.2107,0.2191,0.227,0.236,0.2324,0.2508,0.2573,0.2455,0.2472,0.2604,0.2621,0.2505,0,0,0,0,0,0,0.1255,0.1318,0.1346,0.137,0.1406,0.1495,0.1569,0.1681,0.1688,0.1866,0.192,0.2059,0.2168,0.227,0.2283,0.231,0.2276,0.2566,0.256,0.2595,0.261,0.2623,0.2509,0,0,0,0,0]},{"header":{"parameterUnit":"m.s-1","parameterCategory":2,"la1":30.2991,"la2":30.254,"lo1":-89.0895,"lo2":-89.0444,"dy":0.0017,"dx":0.0017,"nx":28,"ny":28,"refTime":"2024-04-26T09:00:00:Z","depth":"4","parameterNumber":3,"parameterNumberName":"V-component_of_CURRENTS"},"data":[0,0,0,0,0,0,0,0,0,0,0,0,0,0,0,0,0,0,0,0,0,0,0,0,0,0,0,0,0,0,0,0,0,0,0,0,0,0,0,0,0,0,0,0,0,0,0,0,0,0,0,0,0,0,0,0,0,0,0.0008,0.0008,0,-0.0037,-0.0038,-0.0038,-0.0078,-0.0078,-0.0078,-0.0079,-0.0178,-0.0181,-0.0183,0,0,0,0,0,0,0,0,0,0,0,0,0,0.0011,0.0012,0.0008,0.0008,0.0007,-0.0037,-0.0038,-0.0038,-0.0078,-0.0078,-0.0078,-0.0079,-0.0178,-0.018,-0.0183,0,0,0,0,0,0,0,0,0,0,0,0,0,-0.0009,0.0012,0.0008,-0.0017,-0.0019,-0.0037,-0.0038,-0.0039,-0.0078,-0.0078,-0.0079,-0.0079,-0.0177,-0.018,-0.0184,-0.0196,0,0,-0.0194,-0.0196,0,0,0,0,0,0,0,0,-0.0007,-0.0009,-0.0012,-0.0015,-0.0018,-0.0051,-0.0073,-0.0093,-0.0077,-0.0057,-0.0079,-0.0079,-0.014,-0.0146,-0.0155,-0.02,-0.0205,-0.0195,-0.0197,-0.0198,-0.0199,0,0,0,0,0,0,0,-0.0006,-0.0008,-0.0011,-0.0013,-0.0016,-0.0042,-0.0045,-0.0077,-0.0097,-0.0059,-0.0061,-0.0064,-0.0142,-0.0151,-0.0158,-0.0206,-0.0195,-0.0198,-0.02,-0.0201,-0.0274,-0.0274,0,0,0,0,0,0,0.0006,-0.0006,-0.001,-0.0012,-0.0012,-0.0042,-0.0045,-0.0041,-0.0096,-0.0104,-0.0064,-0.0066,-0.0145,-0.0153,-0.0161,-0.0176,-0.0198,-0.0202,-0.0204,-0.0274,-0.0274,-0.0274,0,0,0,0,0,0,0.0006,0.0006,-0.0008,-0.001,-0.0013,-0.0041,-0.0036,-0.0042,-0.0052,-0.0098,-0.0108,-0.0068,-0.0146,-0.0156,-0.0186,-0.0181,-0.0203,-0.0207,-0.0275,-0.0274,-0.0274,-0.0208,0,0,0,0,0,0,0.0006,0.0007,0.0011,-0.0008,-0.0012,-0.0014,-0.0036,-0.0042,-0.0052,-0.0056,-0.0106,-0.0115,-0.0147,-0.018,-0.0189,-0.0186,-0.0209,-0.0275,-0.0274,-0.0274,-0.021,-0.0205,-0.0201,0,0,0,0,0,0.0007,0.0022,0.0012,0.0011,-0.0004,-0.0013,-0.0018,-0.0041,-0.0052,-0.0053,-0.0085,-0.0114,-0.0185,-0.0183,-0.0194,-0.0191,-0.0275,-0.0275,-0.0274,-0.0212,-0.0206,-0.0201,0,0,0,0,0,0,0.0027,0.0019,0.0007,0.0019,0.0004,-0.0019,-0.0019,-0.0036,-0.0062,-0.0065,-0.0112,-0.0123,-0.0149,-0.0178,-0.0175,-0.0211,-0.0235,-0.0236,-0.0184,-0.0179,-0.0174,-0.0153,-0.0212,0,0,0,0,0,0.0034,0.0043,0.0025,0.0034,0.003,0.0005,-0.0003,-0.0016,-0.004,-0.0051,-0.0086,-0.0123,-0.0156,-0.0172,-0.0207,-0.0224,-0.0257,-0.023,-0.0226,-0.0221,-0.0211,-0.0259,-0.0258,-0.0273,-0.0273,-0.0273,0,0,0.0044,0.0041,0.0046,0.0039,0.0026,0.003,-0.0001,-0.0004,-0.0003,-0.0059,-0.007,-0.0111,-0.0158,-0.0178,-0.0192,-0.0201,-0.0234,-0.0221,-0.0217,-0.0209,-0.0258,-0.0257,-0.0256,-0.0272,-0.0272,-0.0272,0,0,0.0075,0.0067,0.0085,0.0078,0.0067,0.0052,0.0053,0.0031,0.0018,0.0002,-0.0039,-0.0071,-0.0119,-0.0149,-0.0171,-0.0162,-0.0211,-0.0177,-0.0134,-0.018,-0.0179,-0.0179,-0.0214,-0.0217,-0.0171,-0.0171,-0.0171,0,0.0086,0.0107,0.0087,0.0101,0.0102,0.0066,0.0082,0.0066,0.0036,0.0028,0.0008,-0.0063,-0.0102,-0.0129,-0.0124,-0.015,-0.0183,-0.0149,-0.0173,-0.0173,-0.0174,-0.0211,-0.0215,-0.0168,-0.0168,-0.0169,-0.0169,0,0.0128,0.0142,0.0153,0.016,0.0156,0.0165,0.0143,0.0134,0.0112,0.009,0.0057,0.0,-0.0039,-0.006,-0.0088,-0.0112,-0.0136,-0.0164,-0.0183,-0.0168,-0.0208,-0.0214,-0.0163,-0.0165,-0.0166,-0.0166,0,0,0.016,0.018,0.0184,0.0196,0.019,0.0191,0.0196,0.0186,0.0191,0.0146,0.0142,0.0082,0.0046,0.0019,-0.0029,-0.0066,-0.0099,-0.0109,-0.0113,-0.0136,-0.0197,-0.0195,-0.0201,-0.0135,-0.0136,-0.0137,-0.0221,0,0.0198,0.0241,0.0238,0.0272,0.029,0.0265,0.0273,0.0258,0.0235,0.022,0.0156,0.0131,0.0077,0.006,0.0013,-0.0072,-0.0112,-0.0073,-0.0214,-0.0217,-0.0212,-0.0207,-0.0139,-0.0225,-0.0227,-0.0228,-0.0228,0,0.0239,0.0264,0.0307,0.033,0.0336,0.0348,0.0353,0.0359,0.0329,0.031,0.027,0.0216,0.0158,0.0109,-0.0024,0.0001,-0.0086,-0.0156,-0.0161,-0.0185,-0.0226,-0.0247,-0.0239,-0.0239,-0.0238,-0.0237,-0.0236,0,0.0271,0.031,0.0347,0.0355,0.0375,0.0388,0.0397,0.0386,0.0402,0.0371,0.0372,0.0283,0.0246,0.0124,-0.0014,-0.0023,-0.0163,-0.0198,-0.028,-0.0281,-0.0287,-0.0287,-0.0292,-0.0292,-0.0292,-0.0292,-0.0291,0,0.0308,0.034,0.0366,0.0387,0.0433,0.043,0.0473,0.0469,0.0475,0.0499,0.0423,0.0411,0.0247,0.0146,0.0009,-0.0145,-0.015,-0.0267,-0.0302,-0.0257,-0.0253,-0.0292,-0.029,-0.0295,-0.0294,-0.0294,-0.0293,0,0.0332,0.0354,0.04,0.0433,0.0452,0.0483,0.0535,0.0562,0.0564,0.0593,0.0589,0.0506,0.0376,0.0208,0.0011,-0.0103,-0.0257,-0.0314,-0.0238,-0.0268,-0.0352,-0.0347,-0.0413,-0.0414,-0.0414,-0.0415,-0.0415,0,0.0345,0.0372,0.0433,0.0468,0.0487,0.0539,0.0579,0.0605,0.0638,0.0648,0.0659,0.056,0.0479,0.0218,0.0028,-0.0226,-0.027,-0.035,-0.0365,-0.0337,-0.0365,-0.0358,-0.0352,-0.0416,-0.0416,-0.0416,-0.0416,0,0.0362,0.0385,0.0421,0.0498,0.0549,0.0615,0.0671,0.0703,0.0735,0.0743,0.072,0.0592,0.0446,0.023,0.0037,-0.0151,-0.0297,-0.0356,-0.0357,-0.0372,-0.0341,-0.0367,-0.036,-0.0418,-0.0418,-0.0418,-0.0418,0,0.0365,0.0392,0.0444,0.0508,0.0589,0.066,0.0693,0.0729,0.0766,0.0777,0.0767,0.0618,0.0534,0.0269,0.0089,-0.0091,-0.015,-0.0219,-0.0228,-0.0228,-0.0155,-0.0088,-0.0111,0,0,0,0,0,0.0355,0.0383,0.0447,0.0519,0.0607,0.065,0.0739,0.0764,0.08,0.0796,0.0787,0.0655,0.0405,0.0296,0.0116,0.0048,-0.0201,-0.0171,-0.0289,-0.0428,-0.0426,-0.0373,0,0,0,0,0,0,0.0344,0.0398,0.0434,0.0522,0.0568,0.0661,0.0719,0.0746,0.0744,0.076,0.0634,0.0591,0.0345,0.0501,0.0104,0.0051,-0.0052,-0.0283,-0.0287,-0.0429,-0.0428,-0.0426,-0.037,0,0,0,0,0]}]]